Pellston, MI

1:23 PM EST on November 20, 2017 (GMT -0500)
Pellston Regional Airport Of Emmet County

Weather History for KPLN - June, 2013

Change the Weather History Date:

Saturday, June 8, 2013

  Actual Average Record
Temperature  
Mean Temperature 54 °F -  
Max Temperature 71 °F 73 °F 90 °F (1950)
Min Temperature 39 °F 48 °F 25 °F (1949)
Degree Days  
Heating Degree Days 11    
Growing Degree Days 4 (Base 50)    
Moisture  
Dew Point 43 °F    
Average Humidity 65    
Maximum Humidity 93    
Minimum Humidity 32    
Precipitation  
Precipitation 0.00 in - - ()
Sea Level Pressure  
Sea Level Pressure 30.00 in    
Wind  
Wind Speed 2 mph (WNW)    
Max Wind Speed 9 mph    
Max Gust Speed -    
Visibility 10 miles    
Events      
Averages and records for this station are not official NWS values.
T = Trace of Precipitation, MM = Missing Value Source: NWS Daily Summary

Daily Weather History Graph

Daily Weather History Graph

Search for Another Location

Airport or City:

Trip Planner

Search our weather history database for the weather conditions in past years. The results will help you decide how hot, cold, wet, or windy it might be!

Date:

Astronomy

Jun. 08, 2013 Rise Set
Actual Time 5:50 AM EDT 9:26 PM EDT
Civil Twilight 5:12 AM EDT 10:04 PM EDT
Nautical Twilight 4:23 AM EDT 10:54 PM EDT
Astronomical Twilight 3:16 AM EDT 12:01 AM EDT
Moon 6:00 AM EDT (6/8) 9:25 PM EDT (6/8)
Length of Visible Light 16h 51m
Length of Day
15h 35m
New Moon, 0% of the Moon is Illuminated
Jun 8
New Moon
Jun 16
First Quarter
Jun 23
Full
Jun 30
Last Quarter
Jul 8
New

Hourly Weather History & Observations

Time (EDT) Temp. Dew Point Humidity Pressure Visibility Wind Dir Wind Speed Gust Speed Precip Events Conditions
12:54 AM 44.1 °F 41.0 °F 89% 29.96 in 10.0 mi Calm Calm - N/A   Clear
1:54 AM 44.1 °F 39.9 °F 85% 29.96 in 10.0 mi Calm Calm - N/A   Clear
2:54 AM 42.1 °F 39.0 °F 89% 29.95 in 10.0 mi Calm Calm - N/A   Clear
3:54 AM 41.0 °F 39.0 °F 93% 29.94 in 10.0 mi Calm Calm - N/A   Clear
4:54 AM 39.0 °F 37.0 °F 93% 29.94 in 10.0 mi Calm Calm - N/A   Clear
5:54 AM 42.1 °F 39.0 °F 89% 29.95 in 10.0 mi Calm Calm - N/A   Clear
6:54 AM 46.9 °F 42.1 °F 83% 29.96 in 10.0 mi Calm Calm - N/A   Clear
7:54 AM 51.1 °F 44.1 °F 77% 29.97 in 10.0 mi Calm Calm - N/A   Clear
8:54 AM 60.1 °F 48.9 °F 67% 29.98 in 10.0 mi Calm Calm - N/A   Clear
9:54 AM 64.0 °F 48.9 °F 58% 29.99 in 10.0 mi WNW 5.8 mph - N/A   Clear
10:54 AM 66.9 °F 46.9 °F 49% 29.98 in 10.0 mi WNW 4.6 mph - N/A   Clear
11:54 AM 66.9 °F 48.0 °F 51% 30.00 in 10.0 mi West 8.1 mph - N/A   Clear
12:54 PM 64.9 °F 48.9 °F 56% 30.01 in 10.0 mi WNW 9.2 mph - N/A   Clear
1:54 PM 64.9 °F 48.9 °F 56% 30.02 in 10.0 mi West 5.8 mph - N/A   Overcast
2:54 PM 64.9 °F 48.0 °F 54% 30.02 in 10.0 mi SW 4.6 mph - N/A   Mostly Cloudy
3:54 PM 68.0 °F 44.1 °F 42% 30.01 in 10.0 mi WNW 5.8 mph - N/A   Mostly Cloudy
4:54 PM 69.1 °F 39.9 °F 35% 30.01 in 10.0 mi NW 4.6 mph - N/A   Mostly Cloudy
5:54 PM 69.1 °F 37.9 °F 32% 30.02 in 10.0 mi NW 5.8 mph - N/A   Overcast
6:54 PM 66.0 °F 37.9 °F 36% 30.03 in 10.0 mi West 5.8 mph - N/A   Overcast
7:54 PM 64.0 °F 39.9 °F 41% 30.03 in 10.0 mi WNW 5.8 mph - N/A   Overcast
8:54 PM 63.0 °F 42.1 °F 46% 30.05 in 10.0 mi SE 3.5 mph - N/A   Overcast
9:54 PM 57.0 °F 46.0 °F 67% 30.06 in 10.0 mi Calm Calm - N/A   Scattered Clouds
10:54 PM 50.0 °F 46.0 °F 86% 30.09 in 10.0 mi Calm Calm - N/A   Clear
11:54 PM 46.0 °F 44.1 °F 93% 30.09 in 10.0 mi Calm Calm - N/A   Clear